Hurricane Symbol View the latest observations near Atlantic Tropical Storm Philippe.

Station 46092 - MBM1 Image indicating link to RSS feed of recent meteorological observations for station 46092


Conditions at 46092 as of
(5:21 am PDT)
1221 GMT on 09/25/2023:
     

Click on the graph icon in the table below to see a time series plot of the last five days of that observation.

5-day plot - Wind Direction Wind Direction (WDIR): E ( 80 deg true )
5-day plot - Wind Speed Wind Speed (WSPD): 3.9 kts
5-day plot - Atmospheric Pressure Atmospheric Pressure (PRES):30.08 in
5-day plot - Pressure Tendency Pressure Tendency (PTDY):+0.01 in ( Rising )
5-day plot - Air Temperature Air Temperature (ATMP): 60.4 °F
5-day plot - Water Temperature Water Temperature (WTMP): 61.2 °F
5-day plot - Wind Speed at 10 Meters Wind Speed at 10 meters (WSPD10M): 3.9 kts
5-day plot - Wind Speed at 20 Meters Wind Speed at 20 meters (WSPD20M): 3.9 kts
5-day plot -  Wind Speed, Wind Gust and Atmospheric Pressure Combined plot of Wind Speed, Gust, and Air Pressure
Previous observations
TIME
(PDT)
5-day plot - Wind Direction
WDIR
 
5-day plot - Wind Speed
WSPD
kts
5-day plot - Wind Gust
GST
kts
5-day plot - Wave Height
WVHT
ft
5-day plot - Dominant Wave Period
DPD
sec
5-day plot - Average Wave Period
APD
sec
5-day plot - Mean Wave Direction
MWD
 
5-day plot - Atmospheric Pressure
PRES
in
5-day plot - Pressure Tendency
PTDY
in
5-day plot - Air Temperature
ATMP
°F
5-day plot - Water Temperature
WTMP
°F
5-day plot - Dew Point
DEWP
°F
5-day plot - Salinity
SAL
psu
5-day plot - Visibility
VIS
nmi
5-day plot - Tide (above MLLW)
TIDE
ft
2023-09-25 04:21 am- 0.0-----30.07+0.00 59.9 61.3----
2023-09-25 03:21 am- 0.0-----30.06+0.00 60.1 61.3----
2023-09-25 02:11 am NE 1.9-----30.07+0.01 60.3 61.3----
2023-09-25 01:11 am NE 3.9-----30.07+0.02 60.3 61.3----
2023-09-25 12:11 am N 3.9-----30.06+0.03 60.3 61.2----
2023-09-24 11:11 pmWSW 3.9-----30.06+0.03 61.2 61.3----
2023-09-24 10:11 pm SW 3.9-----30.05+0.02 61.2 61.3----
2023-09-24 09:11 pmWSW 3.9-----30.03+0.00 61.3 61.2----
2023-09-24 08:11 pmWSW 5.8-----30.03-0.01 61.5 61.3----
2023-09-24 07:11 pmWSW 5.8-----30.02-0.02 61.9 61.5----
2023-09-24 06:11 pm W 7.8-----30.03-0.03 62.2 61.7----
2023-09-24 05:11 pm W 7.8-----30.04-0.03 62.2 61.9----
2023-09-24 04:11 pmWSW 7.8-----30.05-0.03 61.5 62.1----
2023-09-24 03:11 pm SW 5.8-----30.06-0.02 60.8 62.2----
2023-09-24 02:21 pm SW 3.9-----30.06-0.02 60.3 62.2----
2023-09-24 01:21 pmWSW 3.9-----30.08+0.00 59.4 61.5----
2023-09-24 12:21 pm NW 5.8-----30.09+0.02 58.3 61.3----
2023-09-24 11:21 am- 0.0-----30.08+0.02 59.0 61.3----
2023-09-24 10:21 am E 5.8-----30.07+0.03 58.1 61.5----
2023-09-24 09:21 am E 5.8-----30.07+0.04 58.3 61.5----
2023-09-24 08:21 am SW 3.9-----30.06+0.04 58.6 61.9----
2023-09-24 07:21 am S 5.8-----30.04+0.02 58.8 61.9----
2023-09-24 06:21 amSSE 5.8-----30.02+0.00 58.8 61.7----